Printer-friendly version
Follow the MPC on Twitter Follow the MPC on Facebook The MPC blog
Minor Planet Center

MPEC 2010-A83 : 2010 AN60

The following Minor Planet Electronic Circular may be linked-to from your own Web pages, but must not otherwise be redistributed electronically.

A form allowing access to any MPEC is at the bottom of this page.


Read MPEC 2010-A82 Read MPEC 2010-A84


M.P.E.C. 2010-A83                                Issued 2010 Jan. 15, 19:04 UT

     The Minor Planet Electronic Circulars contain information on unusual
         minor planets and routine data on comets.  They are published
   on behalf of Commission 20 of the International Astronomical Union by the
          Minor Planet Center, Smithsonian Astrophysical Observatory,
                          Cambridge, MA 02138, U.S.A.

             Prepared using the Tamkin Foundation Computer Network

                              MPC@CFA.HARVARD.EDU
          URL http://www.cfa.harvard.edu/iau/mpc.html  ISSN 1523-6714

                                   2010 AN60

Observations:
     K10A60N* C2010 01 15.25701 07 55 13.58 +32 17 27.4                 EA083703
     K10A60N  C2010 01 15.26441 07 55 22.94 +32 13 20.9          18.4 V EA083703
     K10A60N  C2010 01 15.27183 07 55 32.30 +32 09 12.2          18.8 V EA083703
     K10A60N  C2010 01 15.32762 07 56 39.70 +31 38 32.0          18.6 V EA083703
     K10A60N  C2010 01 15.32796 07 56 40.18 +31 38 20.5          18.6 V EA083703
     K10A60N  C2010 01 15.41002 07 58 14.66 +30 54 24.7          18.8 R EA083854
     K10A60N  C2010 01 15.41280 07 58 17.83 +30 52 56.4          18.9 R EA083854
     K10A60N KC2010 01 15.41516 07 58 16.61 +30 50 26.4          19.0 R EA083H36
     K10A60N  C2010 01 15.41556 07 58 20.87 +30 51 29.4          19.0 R EA083854
     K10A60N KC2010 01 15.41789 07 58 19.71 +30 49 00.4          19.2 R EA083H36
     K10A60N KC2010 01 15.41937 07 58 21.39 +30 48 14.0          18.8 R EA083H36
     K10A60N KC2010 01 15.42084 07 58 23.18 +30 47 27.3          19.3 R EA083H36
     K10A60N KC2010 01 15.42379 07 58 26.61 +30 45 55.3          18.7 R EA083H36
     K10A60N  C2010 01 15.44910 07 58 58.47 +30 33 58.4          19.2 V EA083G96
     K10A60N  C2010 01 15.44943 07 58 58.90 +30 33 48.6          18.6 V EA083G96
     K10A60N  C2010 01 15.44972 07 58 59.23 +30 33 38.8          18.4 V EA083G96
     K10A60N  C2010 01 15.44999 07 58 59.48 +30 33 31.7          18.1 V EA083G96
     K10A60N  C2010 01 15.45621 07 59 06.57 +30 30 17.8          18.6 V EA083703
     K10A60N  C2010 01 15.45654 07 59 06.75 +30 30 06.8          18.7 V EA083703
     K10A60N  C2010 01 15.45691 07 59 07.22 +30 29 56.3          19.0 V EA083703
     K10A60N  C2010 01 15.45726 07 59 07.58 +30 29 44.2          18.6 V EA083703
     K10A60N  C2010 01 15.48766 07 59 41.42 +30 14 17.7          19.6 R EA083926
     K10A60N  C2010 01 15.48943 07 59 43.42 +30 13 23.6          19.6 R EA083926
     K10A60N  C2010 01 15.49120 07 59 45.43 +30 12 29.2          19.7 R EA083926

Observer details:
703 Catalina Sky Survey.  Observer A. R. Gibbs.  Measurers J. D. Ahern,
    E. C. Beshore, A. Boattini, G. J. Garradd, A. R. Gibbs, A. D. Grauer,
    R. E. Hill, R. A. Kowalski, S. M. Larson, R. H. McNaught.  0.68-m Schmidt
    + CCD.
854 Sabino Canyon Observatory, Tucson.  Observer J. E. McGaha.  0.36-m f/10.0
    Schmidt-Cassegrain + CCD.
926 Tenagra II Observatory.  Observers P. R. Holvorcem, M. Schwartz.  Measurer
    P. R. Holvorcem.  0.81-m f/7 Ritchey-Chretien + CCD.
G96 Mt. Lemmon Survey.  Observer R. A. Kowalski.  Measurers J. D. Ahern,
    E. C. Beshore, A. Boattini, G. J. Garradd, A. R. Gibbs, A. D. Grauer,
    R. E. Hill, R. A. Kowalski, S. M. Larson, R. H. McNaught.  1.5-m reflector
    + CCD.
H36 Sandlot Observatory, Scranton.  Observer G. Hug.  0.56-m reflector + CCD.

Orbital elements:
2010 AN60                                                Earth MOID = 0.0081 AU
Epoch 2010 Jan. 4.0 TT = JDT 2455200.5                  MPC
M   9.56359              (2000.0)            P               Q
n   0.35078364     Peri.  123.15871     +0.48533706     -0.87155429
a   1.9911768      Node   297.65647     +0.77374903     +0.46520059
e   0.5718146      Incl.    4.50538     +0.40713681     +0.15485971
P   2.81           H   26.8           G   0.15           U   8
Residuals in seconds of arc
100115 703  0.5-  0.9-    100115 854  0.2+  0.0     100115 G96  0.6-  1.0+
100115 703  0.2-  0.6+    100115 H36  0.0   0.4-    100115 703  1.3+  0.0
100115 703  0.8+  0.3-    100115 H36  0.6-  0.0     100115 703  1.1-  0.8-
100115 703  1.0-  0.8+    100115 H36  0.4+  0.3-    100115 703  0.4-  0.1+
100115 703  0.1+  0.4+    100115 H36  0.2+  0.8+    100115 703  0.8-  1.1-
100115 854  0.7+  0.4+    100115 G96  0.8-  0.0     100115 926  0.3-  0.4+
100115 854  1.1+  0.1-    100115 G96  0.0   0.5+    100115 926  0.0   0.3+
100115 H36  1.1+  0.8-    100115 G96  0.1+  0.3-    100115 926  0.4+  0.1-

Ephemeris:
2010 AN60                a,e,i = 1.99, 0.57, 5                   q = 0.8526
Date    TT    R. A. (2000) Decl.     Delta      r     Elong.  Phase     V
2010 01 14    06 51.53   +50 23.8    0.0126   0.995   149.4    30.3    18.6
2010 01 15    07 48.08   +34 56.0    0.0181   1.001   166.3    13.5    18.9
2010 01 16    08 08.56   +26 37.3    0.0246   1.008   173.0     6.8    19.3
2010 01 17    08 18.94   +21 46.6    0.0315   1.015   174.2     5.6    19.8
2010 01 18    08 25.17   +18 40.2    0.0386   1.022   173.5     6.3    20.3
2010 01 19    08 29.30   +16 31.6    0.0459   1.029   172.7     7.0    20.7
2010 01 20    08 32.23   +14 58.1    0.0532   1.037   172.1     7.5    21.0
2010 01 21    08 34.41   +13 47.3    0.0605   1.044   171.7     7.8    21.4
2010 01 22    08 36.09   +12 52.2    0.0680   1.051   171.6     7.9    21.6
2010 01 23    08 37.42   +12 08.3    0.0754   1.059   171.5     7.9    21.9
2010 01 24    08 38.49   +11 32.5    0.0830   1.066   171.5     7.8    22.1

Sonia Keys                   (C) Copyright 2010 MPC           M.P.E.C. 2010-A83

Read MPEC 2010-A82 Read MPEC 2010-A84


MPEC number:

Enter an MPEC number in one of the following forms:

  • 1997-B01 (the full form)
  • J97B01 (the packed version of the full form)
  • B01 (the abbreviated form)

Valid HTML 4.01!